Terminal Aerodrome Forecast
Issued by NWS

Home | Current Version | Previous Version | Text Only | Print | Product List | Glossary On
Versions: 1 2 3 4 5 6 7 8 9 10 11 12 13 14
000
FTUS42 KTBW 291439 RRA
TAFLAL
TAF
KLAL 291439Z 2915/3012 08012G20KT P6SM VCTS SCT025CB BKN120
     FM291800 08013G22KT P6SM VCTS BKN035CB BKN100
     FM300000 07010KT P6SM VCSH SCT025 BKN100=

USA.gov is the U.S. government's official web portal to all federal, state and local government web resources and services.